Location: Wanzleben
(52.0609°N, 11.4408°E)
Time: 03:47:06
(UTC+00:00)

Meteor 1-21 - Pass Details

Date: 18 September 2020
Orbit: 845 x 887 km, 81.2° (Epoch: 22 October)

Event Time Altitude Azimuth Distance (km) Brightness Sun altitude
Rises 18:11:46 0° 345° (NNW) 3,436 7.8 -8.5°
Reaches altitude 10° 18:14:13 10° 345° (NNW) 2,491 7.1 -8.9°
Maximum altitude 18:19:51 77° 261° (W) 874 4.4 -9.7°
Drops below altitude 10° 18:25:25 10° 176° (S) 2,462 6.4 -10.6°
Sets 18:27:49 0° 174° (S) 3,393 7.1 -10.9°
